• MPC Preparation (Info)

  • MPEC 2014-L44 : 2014 LK21

    The following Minor Planet Electronic Circular may be linked-to from your own Web pages, but must not otherwise be redistributed electronically.

    A form allowing access to any MPEC is at the bottom of this page.


    Read MPEC 2014-L43 Read MPEC 2014-L45


    M.P.E.C. 2014-L44                                Issued 2014 June 8, 14:05 UT
    
         The Minor Planet Electronic Circulars contain information on unusual
             minor planets and routine data on comets.  They are published
       on behalf of Commission 20 of the International Astronomical Union by the
              Minor Planet Center, Smithsonian Astrophysical Observatory,
                              Cambridge, MA 02138, U.S.A.
    
                 Prepared using the Tamkin Foundation Computer Network
    
                                  MPC@CFA.HARVARD.EDU
                URL https://www.minorplanetcenter.net/    ISSN 1523-6714
    
                                       2014 LK21
    
    Observations:
         K14L21K* C2014 06 07.25110 14 36 25.61 +09 58 48.8          19.6 VqEL044703
         K14L21K  C2014 06 07.25562 14 36 22.33 +10 00 37.0          19.2 VqEL044703
         K14L21K  C2014 06 07.26012 14 36 19.31 +10 02 25.4          18.9 VqEL044703
         K14L21K  C2014 06 07.26462 14 36 16.12 +10 04 13.9          19.0 VqEL044703
         K14L21K  C2014 06 07.30100 14 35 51.05 +10 18 45.8          18.8 VqEL044703
         K14L21K  C2014 06 07.30138 14 35 50.86 +10 18 54.9          18.8 VqEL044703
         K14L21K  C2014 06 07.30177 14 35 50.52 +10 19 03.6          18.9 VqEL044703
         K14L21K  C2014 06 07.39350 14 34 51.87 +10 55 21.3          19.1 VqEL044I52
         K14L21K  C2014 06 07.39400 14 34 51.54 +10 55 31.8          19.2 VqEL044I52
         K14L21K  C2014 06 07.39449 14 34 51.29 +10 55 44.3          19.5 VqEL044I52
         K14L21K KC2014 06 07.90932 14 30 42.03 +14 18 56.5                qEL044203
         K14L21K KC2014 06 07.92604 14 30 30.77 +14 25 26.0                qEL044203
         K14L21K KC2014 06 07.93229 14 30 25.00 +14 27 45.1                qEL044595
         K14L21K KC2014 06 07.93485 14 30 29.72 +14 28 12.4                qEL044J95
         K14L21K KC2014 06 07.93851 14 30 27.33 +14 29 37.5                qEL044J95
         K14L21K KC2014 06 07.94075 14 30 19.38 +14 31 00.0          19.0 VqEL044595
         K14L21K KC2014 06 07.94232 14 30 24.82 +14 31 06.3          18.8 RqEL044J95
         K14L21K KC2014 06 07.96084 14 30 07.81 +14 38 51.3          19.0 RqEL044203
         K14L21K KC2014 06 08.02185 14 29 29.36 +15 02 09.3                tEL044204
         K14L21K KC2014 06 08.03157 14 29 23.48 +15 05 50.7                tEL044204
         K14L21K KC2014 06 08.04240 14 29 17.00 +15 09 57.4          18.6 RtEL044204
         K14L21K KC2014 06 08.21290 14 27 59.78 +16 17 22.8          18.7 RqEL044H36
         K14L21K KC2014 06 08.21849 14 27 55.94 +16 19 30.0          18.9 RqEL044H36
         K14L21K KC2014 06 08.22283 14 27 52.99 +16 21 07.6          18.8 RqEL044H36
    
    Observer details:
    203 GiaGa Observatory.  Observers S. Foglia, G. Galli.  Measurer G. Galli.
        0.28-m f/6.8 Schmidt-Cassegrain + CCD.
    204 Schiaparelli Observatory.  Observer L. Buzzi.  0.60-m f/4.64 reflector
        + CCD.
    595 Farra d'Isonzo.  Observers E. Pettarin, F. Piani, M. Vivona.  Measurer
        E. Pettarin.  0.61-m f/4.0 reflector + CCD.
    703 Catalina Sky Survey.  Observer R. J. Sanders.  Measurers E. J. Christensen,
        A. R. Gibbs, A. D. Grauer, R. E. Hill, J. A. Johnson, R. A. Kowalski,
        S. M. Larson, R. J. Sanders, F. C. Shelly.  0.68-m Schmidt + CCD.
    H36 Sandlot Observatory, Scranton.  Observer G. Hug.  0.56-m reflector + CCD.
    I52 Steward Observatory, Mt. Lemmon Station.  Observer A. R. Gibbs.  Measurers
        E. J. Christensen, A. R. Gibbs, A. D. Grauer, R. E. Hill, J. A. Johnson,
        R. A. Kowalski, S. M. Larson, R. J. Sanders, F. C. Shelly.  1.0-m
        reflector + CCD.
    J95 Great Shefford.  Observer P. Birtwhistle.  0.40-m f/6.0 Schmidt-Cassegrain
        + CCD.
    
    Orbital elements:
    2014 LK21                                                Earth MOID = 0.0135 AU
    Epoch 2014 May 23.0 TT = JDT 2456800.5                  MPC
    M 215.17981              (2000.0)            P               Q
    n   1.04619364     Peri.  140.94834     +0.83778589     -0.53726973
    a   0.9610102      Node   251.81325     +0.47178698     +0.80198789
    e   0.1000101      Incl.    5.87482     +0.27483058     +0.26106830
    P   0.94           H   26.0           G   0.15           U   6
    Residuals in seconds of arc
    140607 703  0.3+  0.7+    140607 I52  0.5-  1.1-    140607 J95  0.1-  0.0
    140607 703  1.2-  0.0     140607 I52  0.1+  0.1-    140607 203  0.0   0.0
    140607 703  0.7+  0.0     140607 203  0.3+  0.5+    140608 204  0.0   0.1+
    140607 703  0.1+  0.3+    140607 203  0.4-  0.7+    140608 204  0.3+  0.1-
    140607 703  0.1-  0.1+    140607 595  0.4+  0.2+    140608 204  0.3+  0.0
    140607 703  0.9+  0.1+    140607 J95  0.1-  0.1+    140608 H36  0.2+  0.4+
    140607 703  0.2-  0.5-    140607 J95  0.1+  0.1-    140608 H36  0.1-  0.3+
    140607 I52  0.1-  0.2+    140607 595  0.5-  0.7-    140608 H36  0.1-  0.8-
    
    Ephemeris:
    2014 LK21                a,e,i = 0.96, 0.10, 6                   q = 0.8649
    Date    TT    R. A. (2000) Decl.     Delta      r     Elong.  Phase     V
    2014 05 09    17 27 08.6 -61 22 27   0.06573 1.0520   129.0    48.2    22.0
    ...
    2014 05 24    16 30 18.4 -51 44 17   0.03378 1.0415   148.4    30.6    20.0
    ...
    2014 06 01    15 30 43.9 -28 49 34   0.02047 1.0337   164.1    15.6    18.5
    ...
    2014 06 07    14 38 45.9 +08 20 08   0.01724 1.0268   133.7    45.6    19.0
    2014 06 08    14 30 01.0 +14 58 16   0.01760 1.0255   126.8    52.4    19.2
    2014 06 09    14 21 18.1 +21 13 10   0.01820 1.0243   120.1    59.0    19.5
    ...
    2014 06 15    13 30 10.9 +47 27 29   0.02540 1.0164    90.8    87.7    21.1
    ...
    2014 06 23    12 25 58.5 +61 56 10   0.03915 1.0048    71.8   106.1    22.9
    ...
    2014 07 08    10 37 13.1 +69 23 36   0.06733 0.9807    56.2   120.6    25.0
    
    A. U. Tomatic                (C) Copyright 2014 MPC           M.P.E.C. 2014-L44
    

    Read MPEC 2014-L43 Read MPEC 2014-L45


    MPEC number:

    Enter an MPEC number in one of the following forms:

    • 1997-B01 (the full form)
    • J97B01 (the packed version of the full form)
    • B01 (the abbreviated form)